Dewpoint
70 72 73 73 74 75 75 75 75 75 75 75 75 75 75 75 74 75 73 74 74 75 75 75 74 74 74 74 74 74 74 74 73 73 73 72 72 71 71 70 69 69 69 69 70 71 72 72 71 71 71 70 70 70 70 69 67 66 66 66 66 66 66 65 65 64 64 65 65 65 65 65 65 64 64 65 65 65 65 65 64 60 61 62 63
70 72 72 73 73 75 75 75 75 75 75 75 75 75 75 75 74 74 74 74 74 75 75 74 74 74 74 74 74 73 74 73 73 73 73 72 72 72 70 70 69 69 69 70 71 71 71 71 71 71 71 70 70 70 70 69 67 67 67 66 66 66 65 65 65 64 64 65 65 65 65 64 64 64 65 65 66 65 65 64 64 61 60 64 64
70 71 73 73 73 74 74 75 75 75 75 75 75 75 75 75 74 74 75 74 74 74 74 74 74 74 74 74 73 73 73 73 73 72 72 73 73 72 71 70 69 69 70 71 70 71 71 71 71 71 70 70 70 70 70 69 67 66 66 65 66 66 65 65 65 65 64 65 65 65 65 65 65 64 64 64 65 64 65 65 64 64 61 63 63
69 71 72 73 73 73 74 74 75 75 75 75 75 75 75 75 74 74 74 74 74 74 74 74 74 74 74 74 73 73 73 73 72 72 72 72 72 72 71 70 70 70 70 70 69 69 70 71 70 70 70 70 70 70 70 69 67 66 66 66 66 66 65 65 66 65 65 65 65 64 61 61 62 64 64 64 65 64 64 64 64 63 63 63 63
69 70 72 73 73 73 73 74 75 75 75 75 75 75 75 75 73 74 74 74 74 74 74 74 74 74 74 74 73 73 73 73 73 72 72 72 72 71 70 70 68 68 69 70 69 69 70 70 70 70 70 70 70 70 69 68 67 67 67 66 66 65 65 65 65 65 64 64 66 67 60 59 61 64 64 63 63 64 64 64 64 63 63 63 64
70 71 72 73 72 72 73 73 74 74 75 75 75 75 75 75 74 74 74 74 74 74 74 74 74 74 74 73 73 73 73 72 72 72 71 72 72 72 70 70 69 69 69 69 69 68 69 69 69 69 69 69 70 70 69 68 67 67 66 66 66 65 65 65 65 64 65 65 66 63 60 60 59 61 64 63 64 64 64 63 62 62 63 63 63
70 71 72 71 71 72 72 72 73 74 74 75 75 75 75 74 74 74 74 74 74 74 74 74 74 74 73 73 73 73 73 72 72 72 72 72 72 72 70 69 69 69 69 69 68 69 69 68 69 69 69 69 69 70 69 68 68 67 67 67 67 66 66 66 65 65 65 65 63 60 60 60 60 60 64 64 63 63 63 63 64 63 63 63 62
70 70 70 70 71 72 72 72 73 73 74 74 74 75 75 74 74 74 74 74 74 74 74 74 74 74 73 72 71 73 72 72 72 72 72 72 72 72 71 70 70 69 69 69 68 68 68 68 68 69 68 69 70 70 69 68 68 68 67 67 67 66 66 66 66 65 67 61 58 60 61 60 60 59 63 63 64 64 64 63 62 62 63 63 63
67 70 70 70 71 71 72 72 72 73 73 74 74 74 75 74 74 74 73 74 74 74 74 74 73 73 73 73 72 72 72 72 71 72 72 72 72 72 72 71 71 71 71 70 69 70 68 68 68 68 69 70 70 69 69 68 68 68 68 67 67 66 66 66 66 67 66 59 57 60 60 59 60 61 62 62 62 62 63 63 63 63 62 62 62
68 69 71 70 71 71 71 70 71 72 72 73 74 74 75 74 74 74 73 73 74 74 74 73 73 73 73 73 72 73 71 71 72 72 72 72 72 72 72 71 71 71 71 70 70 70 68 68 69 69 69 69 69 69 69 68 68 68 67 67 66 65 65 66 66 66 60 60 57 59 63 63 59 59 63 63 63 64 65 64 63 62 62 63 62
69 70 70 70 71 70 71 70 70 71 71 72 72 74 74 74 74 74 74 73 73 74 73 73 73 73 73 73 73 72 72 72 72 72 72 72 72 72 71 71 71 71 71 70 70 70 69 69 69 69 69 69 69 69 69 69 68 68 67 66 66 66 67 67 69 58 60 59 61 62 61 64 61 61 62 62 63 64 64 63 63 63 62 62 63
70 70 70 70 71 70 70 70 70 70 71 71 71 72 74 74 74 74 74 74 74 73 73 73 73 73 72 72 72 72 72 71 71 72 72 72 72 71 71 71 71 71 71 71 70 69 69 68 69 69 69 68 69 69 69 69 68 68 67 67 66 66 67 67 63 57 59 57 57 60 60 59 60 60 62 62 62 63 63 63 63 63 63 63 63
66 69 70 70 70 69 69 70 69 69 70 70 71 70 71 74 73 73 74 74 73 73 73 73 73 72 72 72 72 72 72 71 72 72 72 72 71 71 72 71 71 71 71 70 69 69 69 69 69 69 69 69 68 69 69 69 68 67 67 66 66 65 66 66 61 55 58 56 60 61 60 62 62 64 62 62 62 62 62 62 62 62 62 62 62
65 66 69 69 70 70 69 68 68 69 69 69 70 70 71 72 74 74 73 73 73 73 73 73 73 73 72 72 72 72 72 72 72 72 72 72 71 71 71 71 71 71 69 69 69 70 70 70 69 69 69 68 68 68 68 68 68 67 67 67 67 67 67 68 66 57 60 58 62 60 62 62 62 63 62 62 63 62 62 62 62 62 62 62 62
63 65 67 69 69 70 70 68 68 68 68 68 69 70 70 71 73 73 73 73 73 73 73 72 73 73 72 72 72 72 71 71 72 71 71 71 71 71 71 71 70 70 70 69 69 70 70 69 69 69 69 68 68 68 68 68 68 68 67 66 66 66 67 59 49 55 57 57 58 57 60 61 65 64 61 61 62 62 62 62 62 62 61 61 62
60 63 66 68 69 69 69 68 68 67 68 68 69 69 70 70 71 73 73 73 73 72 72 72 72 72 72 72 72 72 71 72 72 72 72 72 71 71 71 70 70 70 70 69 69 69 69 69 69 69 69 69 69 69 68 68 68 67 66 66 67 66 65 66 60 52 57 58 58 60 59 60 66 62 62 62 62 62 61 62 61 61 61 61 61
55 61 66 68 68 68 67 67 68 68 68 68 69 69 69 69 70 72 73 73 73 72 72 72 72 72 72 72 72 71 71 72 71 72 71 71 71 71 71 70 70 70 70 69 69 68 68 69 69 68 68 69 69 69 68 68 67 67 67 66 66 64 67 68 57 53 54 57 56 59 61 59 65 63 62 63 61 62 62 61 61 61 61 60 61
46 52 57 63 68 68 68 68 68 69 70 69 68 69 68 69 70 72 73 73 73 72 72 72 72 72 72 72 72 72 72 71 71 72 72 71 71 71 71 70 70 70 70 69 69 68 69 69 69 68 69 69 69 68 68 67 67 68 67 65 66 67 64 67 59 57 59 58 58 59 61 64 65 62 62 62 62 62 62 61 61 61 60 60 61
42 43 48 55 58 66 69 69 70 69 70 71 70 70 68 69 70 71 73 73 72 72 72 72 72 72 72 72 71 72 72 71 71 72 71 71 71 71 71 71 70 70 70 70 69 68 68 69 69 69 69 68 68 68 68 68 68 68 67 66 66 67 66 64 56 55 55 57 60 61 61 65 63 62 62 62 62 62 61 60 60 60 60 60 60
46 44 46 46 52 58 66 68 68 70 70 70 70 70 69 70 70 71 71 72 72 72 72 72 72 72 72 73 72 71 71 71 71 71 71 70 70 68 71 70 70 69 69 70 69 68 67 68 68 69 69 69 69 69 68 68 68 68 67 67 66 67 62 57 56 54 47 56 60 61 64 64 63 62 62 62 61 62 61 60 60 60 60 59 60
48 48 48 47 45 49 55 63 68 69 70 70 71 69 71 70 70 70 69 71 72 72 72 72 72 72 72 72 71 70 71 70 70 67 70 69 69 70 71 70 70 69 69 69 69 68 67 67 68 68 69 69 69 69 69 68 68 69 68 67 67 63 60 61 56 57 57 55 56 58 64 63 62 62 61 61 61 62 61 60 60 61 60 60 59
46 46 45 43 45 47 49 53 63 68 69 70 69 69 70 70 69 71 71 71 71 72 72 69 70 69 72 71 69 68 66 67 70 67 69 66 69 70 71 70 70 69 69 69 69 68 68 68 68 68 68 66 68 64 67 68 68 68 68 68 64 60 62 60 57 55 57 54 60 62 64 63 62 61 61 60 61 61 61 60 60 60 60 59 59
41 46 47 45 49 49 47 48 53 62 67 68 69 69 70 70 70 68 70 70 71 70 67 66 65 64 64 66 64 65 66 64 66 67 67 67 68 70 71 70 70 70 69 69 69 69 68 68 68 67 67 68 63 59 59 63 65 68 68 67 61 60 61 58 57 59 52 58 59 64 64 63 62 61 61 60 61 61 61 60 60 61 59 59 59
41 42 46 47 47 49 50 50 53 56 61 66 68 70 70 70 70 70 70 69 70 69 67 63 61 62 62 63 64 64 65 67 66 68 67 67 68 69 71 70 70 70 70 69 69 69 68 68 66 66 66 62 60 56 55 61 62 65 64 62 60 60 60 60 56 57 56 57 57 65 65 63 62 61 61 61 61 61 60 60 60 60 59 59 59
41 45 47 47 48 49 51 51 52 55 55 61 67 70 70 68 69 70 69 70 69 69 68 65 64 64 62 63 60 65 64 69 68 65 66 67 67 68 70 69 69 68 69 65 65 65 66 62 64 62 60 60 56 55 57 57 64 61 62 61 60 61 60 60 56 57 58 60 60 66 65 63 64 61 61 61 60 60 60 60 60 61 58 59 59
43 42 46 45 44 41 46 50 53 53 55 56 62 68 69 68 68 69 69 68 68 68 68 67 65 66 68 62 62 65 63 66 66 67 66 67 69 68 68 64 64 65 65 62 60 62 61 60 60 60 60 59 57 57 57 58 60 61 60 61 61 61 59 58 56 60 61 64 62 67 65 64 64 61 61 61 61 60 60 60 60 61 59 59 58
41 44 45 44 43 42 43 46 51 53 55 52 58 63 67 68 68 68 67 68 69 68 68 69 67 69 69 69 67 69 66 66 67 66 68 69 66 69 68 67 66 63 62 61 60 61 59 59 58 60 58 57 56 57 56 58 59 59 59 58 59 58 59 58 58 59 60 62 64 68 66 64 65 61 60 60 61 60 60 60 60 60 60 58 59
45 47 44 45 46 42 43 46 49 52 54 51 54 56 63 67 68 68 66 69 67 67 69 67 67 70 69 69 68 69 69 70 69 70 66 68 66 68 67 67 65 62 61 61 60 60 58 60 60 57 56 55 54 56 55 55 57 59 57 57 58 59 59 58 60 60 59 62 63 66 66 65 65 61 61 60 60 60 61 60 60 60 59 59 59
48 47 45 44 44 45 48 49 50 51 51 53 55 55 56 60 65 68 68 65 66 68 68 67 68 67 69 68 68 70 70 69 68 67 64 65 66 68 68 66 66 62 61 60 60 62 61 60 61 59 59 57 55 56 56 56 58 58 58 57 57 57 58 59 60 59 59 61 65 64 66 66 66 64 62 61 60 60 60 60 60 59 59 59 60
48 48 46 46 46 43 43 45 52 51 51 52 54 55 56 57 57 60 63 67 68 68 66 68 69 70 69 69 69 69 68 69 69 70 67 66 69 67 67 68 69 63 64 61 62 62 62 61 61 60 57 57 54 55 55 57 55 57 56 56 57 57 58 57 58 58 58 60 63 64 67 67 67 64 65 62 60 59 60 60 60 60 59 59 60
50 48 47 46 48 43 47 46 49 55 51 48 53 54 55 55 53 55 58 59 64 66 67 68 67 67 67 67 68 68 68 68 67 68 69 68 69 67 65 67 68 66 65 63 63 61 61 61 60 60 59 57 54 54 55 57 56 53 55 55 55 57 56 58 57 56 56 58 60 65 64 67 65 66 64 65 63 59 59 60 62 60 60 59 58
49 49 47 49 50 49 48 51 52 54 55 49 52 52 53 51 53 54 54 54 58 58 60 62 65 66 67 68 69 69 67 68 68 67 68 68 68 69 67 64 65 65 62 63 64 63 61 59 60 61 60 58 56 56 58 56 56 53 52 53 54 55 55 56 56 57 56 58 58 63 64 63 66 65 64 65 65 63 59 61 61 61 59 59 58
47 48 47 50 52 53 53 53 51 53 51 51 50 50 51 49 52 53 54 55 55 54 53 58 61 64 65 67 67 67 67 67 69 68 67 67 69 69 68 67 63 62 64 62 63 65 63 61 61 60 59 59 59 59 56 58 57 56 54 51 54 52 53 54 57 57 56 57 57 57 65 63 63 64 64 64 65 64 63 62 62 61 60 58 58
44 46 52 52 51 51 53 53 51 51 52 51 52 46 49 48 49 49 52 54 55 52 53 55 54 55 61 65 67 67 66 67 66 68 69 68 68 67 68 68 69 65 64 64 63 64 64 61 60 61 60 60 58 59 57 57 55 54 54 51 55 56 55 53 55 56 57 57 56 58 56 60 63 62 60 66 65 65 65 64 62 61 61 60 58
44 49 51 51 52 52 52 52 54 52 51 52 52 49 50 49 46 48 50 49 53 54 52 55 52 54 55 56 63 64 65 66 67 67 68 68 68 68 67 66 68 66 65 65 63 64 65 62 60 59 60 59 57 57 57 58 56 53 54 54 51 53 57 56 56 55 54 57 58 56 58 56 56 63 61 60 65 64 65 65 63 63 61 61 60
48 50 49 51 50 53 54 54 54 53 54 54 53 54 53 52 49 47 50 53 48 52 52 53 51 51 53 55 57 61 63 64 66 68 67 67 68 67 66 65 63 66 66 64 65 63 63 60 60 60 59 57 56 55 56 56 56 54 53 55 54 55 56 56 56 53 53 55 55 57 58 57 58 57 60 60 61 61 63 65 65 65 62 61 61
51 50 49 51 51 53 56 56 55 55 56 56 55 55 53 51 51 53 52 51 49 49 49 52 53 54 55 52 58 61 61 61 64 66 69 68 66 66 67 66 65 66 65 67 65 64 62 59 61 61 60 57 55 53 54 56 54 55 53 53 54 55 56 57 56 56 51 55 55 54 57 56 57 58 59 57 60 61 62 64 65 64 64 64 62
53 51 51 50 50 52 56 57 57 56 56 55 55 52 53 53 53 53 55 54 54 50 48 47 52 51 54 54 57 57 58 60 62 63 66 66 66 67 65 67 67 67 67 66 65 64 64 63 62 63 61 58 56 55 54 54 52 50 55 52 55 54 55 57 56 56 54 52 54 54 54 56 56 56 56 58 56 59 59 63 64 63 64 63 63
54 54 53 53 50 53 55 57 58 57 56 56 57 58 58 53 51 49 50 50 51 52 50 50 51 52 54 57 57 58 58 59 59 61 63 64 66 68 66 67 66 67 67 67 65 64 64 65 65 64 64 60 59 57 57 56 50 49 50 52 52 56 57 57 56 55 54 54 51 51 51 55 56 56 58 57 57 57 60 61 60 61 61 63 63
55 56 56 55 54 56 57 56 56 55 53 55 50 42 42 41 42 42 43 46 51 48 54 51 51 52 56 55 56 58 56 58 58 59 61 61 62 65 67 67 66 66 66 67 66 65 65 64 65 64 66 61 60 59 59 57 55 53 54 52 52 55 54 56 56 54 55 56 55 54 53 53 55 57 56 57 58 56 58 61 61 59 58 61 62
56 56 56 56 55 54 56 55 55 53 55 48 44 42 40 40 43 42 42 42 42 48 54 56 52 55 55 54 56 56 58 58 58 58 60 60 60 60 62 64 63 63 64 65 67 64 65 65 66 65 63 62 63 62 60 59 55 53 54 53 56 56 57 56 55 54 54 54 53 51 52 55 54 56 57 57 56 57 56 58 61 59 58 60 60
54 56 55 56 56 56 56 58 55 53 51 51 48 46 45 42 42 39 40 41 40 40 44 53 54 55 56 56 56 57 57 57 57 58 59 59 60 59 59 59 61 62 62 62 64 66 67 66 66 64 63 62 61 63 62 59 56 52 50 52 55 55 57 56 53 53 53 52 55 54 54 53 52 55 57 56 57 55 54 57 59 58 58 60 59
55 55 55 56 56 56 55 58 56 53 50 53 53 48 48 51 50 50 45 41 47 50 50 52 54 51 56 54 54 55 55 55 57 57 58 58 59 59 59 59 60 60 60 59 61 63 65 66 67 64 63 61 61 61 61 60 55 54 53 52 51 52 54 54 56 54 53 53 53 51 50 50 50 52 55 57 57 56 53 55 57 58 59 58 60
53 54 54 54 55 55 55 57 56 55 52 52 50 49 53 55 56 54 53 50 49 54 56 55 54 53 52 53 52 53 53 54 54 53 55 56 57 58 59 58 59 60 60 60 61 62 64 66 66 65 65 63 61 60 61 61 61 61 51 49 51 51 49 53 54 54 54 54 53 51 51 49 51 52 53 53 55 57 57 54 54 58 58 58 58
53 52 54 54 54 56 55 57 56 55 54 50 53 55 55 58 57 57 56 57 51 47 45 44 48 50 51 52 52 52 52 52 53 54 53 55 56 57 57 58 59 59 58 59 59 60 61 62 64 65 65 64 63 65 65 65 61 63 58 52 50 50 49 48 54 54 54 52 52 51 52 51 50 51 51 51 53 56 56 54 56 57 59 58 58
52 54 56 55 56 54 55 57 56 54 53 52 55 56 55 51 50 47 44 43 44 45 42 45 45 48 48 52 51 50 51 51 51 52 52 53 55 56 57 57 58 58 58 58 59 59 60 61 60 64 66 65 64 63 64 65 65 63 63 60 58 53 50 48 48 51 55 55 54 51 51 53 53 52 52 52 51 51 54 55 57 57 58 58 57
52 55 56 57 56 55 55 58 56 54 54 52 53 52 52 49 48 45 45 44 44 48 50 50 49 48 50 52 52 52 50 51 52 52 52 53 54 55 56 57 56 57 58 59 58 59 60 61 60 61 62 64 64 63 62 63 65 64 61 61 57 56 53 52 50 49 48 54 54 54 53 51 52 52 50 51 52 51 54 55 54 53 55 58 58
53 53 56 58 56 56 56 58 55 53 54 54 50 52 51 50 51 50 49 47 47 49 51 51 51 50 49 52 52 52 51 50 50 50 51 51 52 53 54 55 54 55 54 55 56 58 59 60 62 63 62 62 63 62 61 61 60 60 62 61 59 59 54 51 50 50 49 49 53 54 54 56 56 56 55 53 52 51 55 56 52 52 54 54 57
50 53 56 59 58 56 57 58 55 54 53 53 51 51 52 51 51 50 48 49 51 50 49 47 48 49 50 50 52 51 51 52 50 50 51 51 51 52 53 53 53 53 53 53 55 55 57 60 60 61 63 65 65 65 63 62 62 61 62 62 62 62 61 52 50 50 48 49 49 53 53 54 57 56 55 54 52 54 54 54 52 50 54 57 57
52 55 59 59 58 57 58 58 55 53 54 53 52 51 52 50 50 50 49 49 48 48 48 49 50 50 50 50 50 49 49 50 52 52 52 50 51 52 52 52 53 53 53 52 54 56 58 59 60 61 62 64 65 65 64 63 63 64 64 63 62 61 57 53 52 51 51 52 50 49 55 54 52 53 56 55 53 53 54 55 55 51 51 55 55
55 58 59 58 59 58 58 57 56 54 55 53 52 53 53 51 51 52 52 52 50 51 49 51 50 49 49 49 49 47 48 48 49 52 53 52 52 51 52 53 53 53 51 51 53 54 55 56 58 60 62 62 63 64 65 65 64 64 65 66 62 58 57 56 56 53 52 52 51 51 50 46 50 53 55 54 55 52 52 55 55 54 52 52 52